Data supplied by UK-AIR on 16/3/2017
All Data GMT hour ending 
Status: R =Ratified P=Provisional,P*=As supplied
,,Dumbarton Roadside,,,,,,,,,,,,,,,,,,,,,,,
Date,time,"Nitric oxide",status,unit,"Nitrogen dioxide",status,unit,"Nitrogen oxides as nitrogen dioxide",status,unit
 
01-01-2016,01:00,0.58789,R,ugm-3,0.91481,R,ugm-3,1.81624,R,ugm-3
01-01-2016,02:00,,,,,,,,,
01-01-2016,03:00,0.64454,R,ugm-3,2.57518,R,ugm-3,3.56347,R,ugm-3
01-01-2016,04:00,1.18681,R,ugm-3,3.94501,R,ugm-3,5.76475,R,ugm-3
01-01-2016,05:00,0.74557,R,ugm-3,2.68228,R,ugm-3,3.82548,R,ugm-3
01-01-2016,06:00,1.62710,R,ugm-3,5.83743,R,ugm-3,8.33228,R,ugm-3
01-01-2016,07:00,1.22048,R,ugm-3,8.03250,R,ugm-3,9.90388,R,ugm-3
01-01-2016,08:00,1.15251,R,ugm-3,8.66123,R,ugm-3,10.42838,R,ugm-3
01-01-2016,09:00,1.55944,R,ugm-3,7.77479,R,ugm-3,10.16589,R,ugm-3
01-01-2016,10:00,1.62679,R,ugm-3,8.61486,R,ugm-3,11.10923,R,ugm-3
01-01-2016,11:00,2.23734,R,ugm-3,8.51684,R,ugm-3,11.94739,R,ugm-3
01-01-2016,12:00,3.15224,R,ugm-3,9.62992,R,ugm-3,14.46328,R,ugm-3
01-01-2016,13:00,6.10117,R,ugm-3,14.17402,R,ugm-3,23.52901,R,ugm-3
01-01-2016,14:00,6.74509,R,ugm-3,15.02078,R,ugm-3,25.36310,R,ugm-3
01-01-2016,15:00,5.62688,R,ugm-3,15.26749,R,ugm-3,23.89525,R,ugm-3
01-01-2016,16:00,5.59289,R,ugm-3,13.80060,R,ugm-3,22.37625,R,ugm-3
01-01-2016,17:00,4.81302,R,ugm-3,12.37627,R,ugm-3,19.75613,R,ugm-3
01-01-2016,18:00,3.96610,R,ugm-3,8.69614,R,ugm-3,14.77741,R,ugm-3
01-01-2016,19:00,3.25389,R,ugm-3,8.47859,R,ugm-3,13.46783,R,ugm-3
01-01-2016,20:00,3.86414,R,ugm-3,12.20653,R,ugm-3,18.13146,R,ugm-3
01-01-2016,21:00,2.67764,R,ugm-3,9.20438,R,ugm-3,13.31004,R,ugm-3
01-01-2016,22:00,2.81329,R,ugm-3,8.05354,R,ugm-3,12.36718,R,ugm-3
01-01-2016,23:00,2.50832,R,ugm-3,6.84436,R,ugm-3,10.69040,R,ugm-3
01-01-2016,24:00,1.52545,R,ugm-3,4.47334,R,ugm-3,6.81233,R,ugm-3
02-01-2016,01:00,1.40113,R,ugm-3,4.21005,R,ugm-3,6.35843,R,ugm-3
02-01-2016,02:00,,,,,,,,,
02-01-2016,03:00,1.93176,R,ugm-3,5.47549,R,ugm-3,8.43747,R,ugm-3
02-01-2016,04:00,1.32183,R,ugm-3,4.31412,R,ugm-3,6.34089,R,ugm-3
02-01-2016,05:00,0.94920,R,ugm-3,4.09944,R,ugm-3,5.55486,R,ugm-3
02-01-2016,06:00,1.05054,R,ugm-3,5.35883,R,ugm-3,6.96963,R,ugm-3
02-01-2016,07:00,2.37299,R,ugm-3,7.15658,R,ugm-3,10.79511,R,ugm-3
02-01-2016,08:00,1.96575,R,ugm-3,6.57565,R,ugm-3,9.58975,R,ugm-3
02-01-2016,09:00,2.98261,R,ugm-3,8.10804,R,ugm-3,12.68131,R,ugm-3
02-01-2016,10:00,5.08400,R,ugm-3,9.91679,R,ugm-3,17.71214,R,ugm-3
02-01-2016,11:00,9.86365,R,ugm-3,12.91177,R,ugm-3,28.03582,R,ugm-3
02-01-2016,12:00,11.15180,R,ugm-3,13.18956,R,ugm-3,30.28874,R,ugm-3
02-01-2016,13:00,20.20158,R,ugm-3,23.36597,R,ugm-3,54.34130,R,ugm-3
02-01-2016,14:00,25.62484,R,ugm-3,25.95071,R,ugm-3,65.24159,R,ugm-3
02-01-2016,15:00,28.64144,R,ugm-3,26.72241,R,ugm-3,70.63867,R,ugm-3
02-01-2016,16:00,19.01540,R,ugm-3,24.29401,R,ugm-3,53.45055,R,ugm-3
02-01-2016,17:00,16.87971,R,ugm-3,23.74321,R,ugm-3,49.62507,R,ugm-3
02-01-2016,18:00,20.23557,R,ugm-3,22.99973,R,ugm-3,54.02717,R,ugm-3
02-01-2016,19:00,12.88056,R,ugm-3,18.13719,R,ugm-3,37.88710,R,ugm-3
02-01-2016,20:00,8.44017,R,ugm-3,14.72768,R,ugm-3,27.66909,R,ugm-3
02-01-2016,21:00,8.74513,R,ugm-3,14.62680,R,ugm-3,28.03582,R,ugm-3
02-01-2016,22:00,4.71136,R,ugm-3,11.79821,R,ugm-3,19.02220,R,ugm-3
02-01-2016,23:00,4.13542,R,ugm-3,9.69446,R,ugm-3,16.03536,R,ugm-3
02-01-2016,24:00,2.94893,R,ugm-3,7.32153,R,ugm-3,11.84316,R,ugm-3
03-01-2016,01:00,2.17113,R,ugm-3,7.02143,R,ugm-3,10.35045,R,ugm-3
03-01-2016,02:00,,,,,,,,,
03-01-2016,03:00,1.39105,R,ugm-3,7.09872,R,ugm-3,9.23164,R,ugm-3
03-01-2016,04:00,0.84816,R,ugm-3,5.41333,R,ugm-3,6.71383,R,ugm-3
03-01-2016,05:00,1.52670,R,ugm-3,7.30958,R,ugm-3,9.65048,R,ugm-3
03-01-2016,06:00,1.39074,R,ugm-3,7.46592,R,ugm-3,9.59836,R,ugm-3
03-01-2016,07:00,2.00161,R,ugm-3,7.47357,R,ugm-3,10.54266,R,ugm-3
03-01-2016,08:00,5.38293,R,ugm-3,7.55183,R,ugm-3,15.80554,R,ugm-3
03-01-2016,09:00,2.30688,R,ugm-3,7.26750,R,ugm-3,10.80467,R,ugm-3
03-01-2016,10:00,5.36058,R,ugm-3,8.93185,R,ugm-3,17.15130,R,ugm-3
03-01-2016,11:00,7.53182,R,ugm-3,8.32989,R,ugm-3,19.87853,R,ugm-3
03-01-2016,12:00,8.24403,R,ugm-3,10.75255,R,ugm-3,23.39322,R,ugm-3
03-01-2016,13:00,10.07600,R,ugm-3,11.92970,R,ugm-3,27.37935,R,ugm-3
03-01-2016,14:00,8.37999,R,ugm-3,13.32343,R,ugm-3,26.17256,R,ugm-3
03-01-2016,15:00,8.88857,R,ugm-3,13.48791,R,ugm-3,27.11686,R,ugm-3
03-01-2016,16:00,9.73674,R,ugm-3,16.01623,R,ugm-3,30.94568,R,ugm-3
03-01-2016,17:00,12.04393,R,ugm-3,13.84268,R,ugm-3,32.30978,R,ugm-3
03-01-2016,18:00,9.26214,R,ugm-3,15.74753,R,ugm-3,29.94927,R,ugm-3
03-01-2016,19:00,9.26183,R,ugm-3,15.32869,R,ugm-3,29.52996,R,ugm-3
03-01-2016,20:00,6.92064,R,ugm-3,12.72912,R,ugm-3,23.34063,R,ugm-3
03-01-2016,21:00,5.93746,R,ugm-3,9.72602,R,ugm-3,18.83000,R,ugm-3
03-01-2016,22:00,2.68014,R,ugm-3,6.11809,R,ugm-3,10.22757,R,ugm-3
03-01-2016,23:00,2.23890,R,ugm-3,5.69303,R,ugm-3,9.12597,R,ugm-3
03-01-2016,24:00,1.96793,R,ugm-3,5.00788,R,ugm-3,8.02533,R,ugm-3
04-01-2016,01:00,1.08598,R,ugm-3,3.78930,R,ugm-3,5.45445,R,ugm-3
04-01-2016,02:00,,,,,,,,,
04-01-2016,03:00,1.39105,R,ugm-3,6.83575,R,ugm-3,8.96867,R,ugm-3
04-01-2016,04:00,1.25510,R,ugm-3,5.05091,R,ugm-3,6.97537,R,ugm-3
04-01-2016,05:00,1.01780,R,ugm-3,3.42242,R,ugm-3,4.98302,R,ugm-3
04-01-2016,06:00,2.51082,R,ugm-3,4.85679,R,ugm-3,8.70666,R,ugm-3
04-01-2016,07:00,6.95495,R,ugm-3,10.10613,R,ugm-3,20.77023,R,ugm-3
04-01-2016,08:00,4.03720,R,ugm-3,7.34161,R,ugm-3,13.53189,R,ugm-3
04-01-2016,09:00,5.22463,R,ugm-3,8.72052,R,ugm-3,16.73151,R,ugm-3
04-01-2016,10:00,5.69954,R,ugm-3,10.35284,R,ugm-3,19.09201,R,ugm-3
04-01-2016,11:00,9.46545,R,ugm-3,11.55437,R,ugm-3,26.06785,R,ugm-3
04-01-2016,12:00,6.88697,R,ugm-3,10.36766,R,ugm-3,20.92753,R,ugm-3
04-01-2016,13:00,12.04393,R,ugm-3,13.05520,R,ugm-3,31.52230,R,ugm-3
04-01-2016,14:00,11.90829,R,ugm-3,13.57779,R,ugm-3,31.83691,R,ugm-3
04-01-2016,15:00,12.79044,R,ugm-3,13.90388,R,ugm-3,33.51561,R,ugm-3
04-01-2016,16:00,13.90989,R,ugm-3,13.86610,R,ugm-3,35.19430,R,ugm-3
04-01-2016,17:00,11.22975,R,ugm-3,17.50368,R,ugm-3,34.72239,R,ugm-3
04-01-2016,18:00,8.31232,R,ugm-3,14.21466,R,ugm-3,26.96003,R,ugm-3
04-01-2016,19:00,6.64967,R,ugm-3,13.30144,R,ugm-3,23.49745,R,ugm-3
04-01-2016,20:00,6.61537,R,ugm-3,11.36121,R,ugm-3,21.50463,R,ugm-3
04-01-2016,21:00,4.30849,R,ugm-3,11.22685,R,ugm-3,17.83311,R,ugm-3
04-01-2016,22:00,3.63027,R,ugm-3,9.38225,R,ugm-3,14.94858,R,ugm-3
04-01-2016,23:00,3.01940,R,ugm-3,8.53549,R,ugm-3,13.16517,R,ugm-3
04-01-2016,24:00,1.45872,R,ugm-3,7.99090,R,ugm-3,10.22757,R,ugm-3
05-01-2016,01:00,1.22235,R,ugm-3,6.66570,R,ugm-3,8.53995,R,ugm-3
05-01-2016,02:00,,,,,,,,,
05-01-2016,03:00,0.91677,R,ugm-3,7.57111,R,ugm-3,8.97680,R,ugm-3
05-01-2016,04:00,1.08671,R,ugm-3,6.47142,R,ugm-3,8.13769,R,ugm-3
05-01-2016,05:00,2.17342,R,ugm-3,6.22232,R,ugm-3,9.55485,R,ugm-3
05-01-2016,06:00,2.13943,R,ugm-3,6.90460,R,ugm-3,10.18502,R,ugm-3
05-01-2016,07:00,8.89699,R,ugm-3,9.50991,R,ugm-3,23.15177,R,ugm-3
05-01-2016,08:00,14.22795,R,ugm-3,14.82761,R,ugm-3,36.64350,R,ugm-3
05-01-2016,09:00,21.73296,R,ugm-3,16.18214,R,ugm-3,49.50554,R,ugm-3
05-01-2016,10:00,20.95183,R,ugm-3,18.53547,R,ugm-3,50.66117,R,ugm-3
05-01-2016,11:00,17.79398,R,ugm-3,14.45228,R,ugm-3,41.73601,R,ugm-3
05-01-2016,12:00,15.99444,R,ugm-3,14.53404,R,ugm-3,39.05851,R,ugm-3
05-01-2016,13:00,23.02329,R,ugm-3,19.61125,R,ugm-3,54.91313,R,ugm-3
05-01-2016,14:00,19.86512,R,ugm-3,18.25816,R,ugm-3,48.71759,R,ugm-3
05-01-2016,15:00,24.21196,R,ugm-3,19.94068,R,ugm-3,57.06518,R,ugm-3
05-01-2016,16:00,24.89112,R,ugm-3,18.11233,R,ugm-3,56.27818,R,ugm-3
05-01-2016,17:00,31.07118,R,ugm-3,23.75564,R,ugm-3,71.39745,R,ugm-3
05-01-2016,18:00,28.18493,R,ugm-3,22.66934,R,ugm-3,65.88563,R,ugm-3
05-01-2016,19:00,14.87374,R,ugm-3,16.30550,R,ugm-3,39.11158,R,ugm-3
05-01-2016,20:00,21.66498,R,ugm-3,21.16898,R,ugm-3,54.38815,R,ugm-3
05-01-2016,21:00,12.29308,R,ugm-3,17.32199,R,ugm-3,36.17111,R,ugm-3
05-01-2016,22:00,7.91194,R,ugm-3,12.33323,R,ugm-3,24.46470,R,ugm-3
05-01-2016,23:00,4.95802,R,ugm-3,12.39969,R,ugm-3,20.00188,R,ugm-3
05-01-2016,24:00,7.16512,R,ugm-3,14.47571,R,ugm-3,25.46207,R,ugm-3
06-01-2016,01:00,2.76194,R,ugm-3,16.06436,R,ugm-3,20.29928,R,ugm-3
06-01-2016,02:00,,,,,,,,,
06-01-2016,03:00,1.22235,R,ugm-3,13.08819,R,ugm-3,14.96244,R,ugm-3
06-01-2016,04:00,3.05620,R,ugm-3,13.05855,R,ugm-3,17.74465,R,ugm-3
06-01-2016,05:00,1.59592,R,ugm-3,11.46496,R,ugm-3,13.91200,R,ugm-3
06-01-2016,06:00,3.09019,R,ugm-3,10.27634,R,ugm-3,15.01456,R,ugm-3
06-01-2016,07:00,8.72673,R,ugm-3,12.81566,R,ugm-3,26.19647,R,ugm-3
06-01-2016,08:00,20.20470,R,ugm-3,18.68273,R,ugm-3,49.66284,R,ugm-3
06-01-2016,09:00,24.38160,R,ugm-3,25.40326,R,ugm-3,62.78785,R,ugm-3
06-01-2016,10:00,19.45788,R,ugm-3,30.48525,R,ugm-3,60.32025,R,ugm-3
06-01-2016,11:00,24.07601,R,ugm-3,22.56463,R,ugm-3,59.48066,R,ugm-3
06-01-2016,12:00,22.78537,R,ugm-3,19.39849,R,ugm-3,54.33556,R,ugm-3
06-01-2016,13:00,19.79746,R,ugm-3,16.36718,R,ugm-3,46.72285,R,ugm-3
06-01-2016,14:00,16.87722,R,ugm-3,19.27083,R,ugm-3,45.14887,R,ugm-3
06-01-2016,15:00,23.56680,R,ugm-3,26.07455,R,ugm-3,62.20980,R,ugm-3
06-01-2016,16:00,23.36286,R,ugm-3,28.90744,R,ugm-3,64.73000,R,ugm-3
06-01-2016,17:00,17.52207,R,ugm-3,27.46876,R,ugm-3,54.33556,R,ugm-3
06-01-2016,18:00,20.37465,R,ugm-3,29.44724,R,ugm-3,60.68793,R,ugm-3
06-01-2016,19:00,12.46240,R,ugm-3,26.19647,R,ugm-3,45.30521,R,ugm-3
06-01-2016,20:00,9.30455,R,ugm-3,19.38462,R,ugm-3,33.65139,R,ugm-3
06-01-2016,21:00,6.04410,R,ugm-3,18.76641,R,ugm-3,28.03390,R,ugm-3
06-01-2016,22:00,4.71978,R,ugm-3,17.22732,R,ugm-3,24.46422,R,ugm-3
06-01-2016,23:00,3.36179,R,ugm-3,14.42742,R,ugm-3,19.58209,R,ugm-3
06-01-2016,24:00,1.76618,R,ugm-3,11.15179,R,ugm-3,13.85989,R,ugm-3
07-01-2016,01:00,2.17529,R,ugm-3,9.34575,R,ugm-3,12.68115,R,ugm-3
07-01-2016,02:00,,,,,,,,,
07-01-2016,03:00,3.02501,R,ugm-3,8.86587,R,ugm-3,13.50416,R,ugm-3
07-01-2016,04:00,1.32557,R,ugm-3,7.37317,R,ugm-3,9.40568,R,ugm-3
07-01-2016,05:00,1.39355,R,ugm-3,7.53190,R,ugm-3,9.66864,R,ugm-3
07-01-2016,06:00,2.44720,R,ugm-3,9.48935,R,ugm-3,13.24167,R,ugm-3
07-01-2016,07:00,7.30762,R,ugm-3,16.38200,R,ugm-3,27.58686,R,ugm-3
07-01-2016,08:00,18.86385,R,ugm-3,29.55912,R,ugm-3,58.48329,R,ugm-3
07-01-2016,09:00,41.16059,R,ugm-3,37.40850,R,ugm-3,100.52052,R,ugm-3
07-01-2016,10:00,63.42333,R,ugm-3,58.76156,R,ugm-3,156.00932,R,ugm-3
07-01-2016,11:00,69.54134,R,ugm-3,58.36615,R,ugm-3,164.99472,R,ugm-3
07-01-2016,12:00,61.31602,R,ugm-3,55.42377,R,ugm-3,149.44036,R,ugm-3
07-01-2016,13:00,40.85469,R,ugm-3,42.86917,R,ugm-3,105.51215,R,ugm-3
07-01-2016,14:00,56.08173,R,ugm-3,52.99346,R,ugm-3,138.98424,R,ugm-3
07-01-2016,15:00,70.39106,R,ugm-3,63.52560,R,ugm-3,171.45706,R,ugm-3
07-01-2016,16:00,79.36414,R,ugm-3,74.09599,R,ugm-3,195.78597,R,ugm-3
07-01-2016,17:00,25.52568,R,ugm-3,35.00401,R,ugm-3,74.14284,R,ugm-3
07-01-2016,18:00,32.96926,R,ugm-3,48.12902,R,ugm-3,98.68118,R,ugm-3
07-01-2016,19:00,20.93718,R,ugm-3,35.62844,R,ugm-3,67.73167,R,ugm-3
07-01-2016,20:00,17.26637,R,ugm-3,26.22850,R,ugm-3,52.70324,R,ugm-3
07-01-2016,21:00,24.87989,R,ugm-3,46.08217,R,ugm-3,84.23080,R,ugm-3
07-01-2016,22:00,11.01241,R,ugm-3,20.21226,R,ugm-3,37.09772,R,ugm-3
07-01-2016,23:00,5.64216,R,ugm-3,14.67892,R,ugm-3,23.33011,R,ugm-3
07-01-2016,24:00,4.96238,R,ugm-3,18.08603,R,ugm-3,25.69492,R,ugm-3
08-01-2016,01:00,4.39590,R,ugm-3,15.83996,R,ugm-3,22.58025,R,ugm-3
08-01-2016,02:00,,,,,,,,,
08-01-2016,03:00,8.32729,R,ugm-3,22.15392,R,ugm-3,34.92225,R,ugm-3
08-01-2016,04:00,6.76380,R,ugm-3,22.23712,R,ugm-3,32.60813,R,ugm-3
08-01-2016,05:00,6.59385,R,ugm-3,26.91557,R,ugm-3,37.02600,R,ugm-3
08-01-2016,06:00,7.57953,R,ugm-3,24.72050,R,ugm-3,36.34228,R,ugm-3
08-01-2016,07:00,93.60550,R,ugm-3,59.11729,R,ugm-3,202.64372,R,ugm-3
08-01-2016,08:00,207.16250,R,ugm-3,77.33433,R,ugm-3,394.97906,R,ugm-3
08-01-2016,09:00,174.15925,R,ugm-3,75.66041,R,ugm-3,342.70088,R,ugm-3
08-01-2016,10:00,200.19477,R,ugm-3,86.96616,R,ugm-3,393.92719,R,ugm-3
08-01-2016,11:00,125.65706,R,ugm-3,70.29728,R,ugm-3,262.96875,R,ugm-3
08-01-2016,12:00,136.05767,R,ugm-3,71.44287,R,ugm-3,280.06172,R,ugm-3
08-01-2016,13:00,56.04774,R,ugm-3,43.96790,R,ugm-3,129.90656,R,ugm-3
08-01-2016,14:00,115.12049,R,ugm-3,68.67644,R,ugm-3,245.19206,R,ugm-3
08-01-2016,15:00,75.69334,R,ugm-3,60.44313,R,ugm-3,176.50463,R,ugm-3
08-01-2016,16:00,73.04220,R,ugm-3,63.71924,R,ugm-3,175.71572,R,ugm-3
08-01-2016,17:00,84.12259,R,ugm-3,71.23823,R,ugm-3,200.22441,R,ugm-3
08-01-2016,18:00,112.91121,R,ugm-3,76.69221,R,ugm-3,249.82031,R,ugm-3
08-01-2016,19:00,73.82395,R,ugm-3,67.72736,R,ugm-3,180.92250,R,ugm-3
08-01-2016,20:00,87.48749,R,ugm-3,71.28557,R,ugm-3,205.43119,R,ugm-3
08-01-2016,21:00,90.71644,R,ugm-3,73.59252,R,ugm-3,212.68913,R,ugm-3
08-01-2016,22:00,59.00477,R,ugm-3,67.15074,R,ugm-3,157.62347,R,ugm-3
08-01-2016,23:00,21.10712,R,ugm-3,63.14645,R,ugm-3,95.51025,R,ugm-3
08-01-2016,24:00,26.40940,R,ugm-3,61.69582,R,ugm-3,102.18966,R,ugm-3
09-01-2016,01:00,3.40180,R,ugm-3,35.31623,R,ugm-3,40.53225,R,ugm-3
09-01-2016,02:00,,,,,,,,,
09-01-2016,03:00,5.30757,R,ugm-3,16.84387,R,ugm-3,24.98203,R,ugm-3
09-01-2016,04:00,4.01444,R,ugm-3,11.51612,R,ugm-3,17.67150,R,ugm-3
09-01-2016,05:00,5.06903,R,ugm-3,10.58282,R,ugm-3,18.35522,R,ugm-3
09-01-2016,06:00,3.19777,R,ugm-3,8.29786,R,ugm-3,13.20103,R,ugm-3
09-01-2016,07:00,8.81124,R,ugm-3,18.62440,R,ugm-3,32.13478,R,ugm-3
09-01-2016,08:00,11.05638,R,ugm-3,23.38653,R,ugm-3,40.33941,R,ugm-3
09-01-2016,09:00,15.81951,R,ugm-3,24.81373,R,ugm-3,49.06997,R,ugm-3
09-01-2016,10:00,31.09425,R,ugm-3,36.10465,R,ugm-3,83.78184,R,ugm-3
09-01-2016,11:00,41.98069,R,ugm-3,48.65448,R,ugm-3,113.02397,R,ugm-3
09-01-2016,12:00,20.68429,R,ugm-3,39.96982,R,ugm-3,71.68528,R,ugm-3
09-01-2016,13:00,53.30929,R,ugm-3,50.84907,R,ugm-3,132.58884,R,ugm-3
09-01-2016,14:00,36.46981,R,ugm-3,39.48548,R,ugm-3,95.40506,R,ugm-3
09-01-2016,15:00,27.01215,R,ugm-3,29.84648,R,ugm-3,71.26453,R,ugm-3
09-01-2016,16:00,23.54185,R,ugm-3,30.80225,R,ugm-3,66.89925,R,ugm-3
09-01-2016,17:00,26.53568,R,ugm-3,35.73124,R,ugm-3,76.41872,R,ugm-3
09-01-2016,18:00,50.31577,R,ugm-3,53.54570,R,ugm-3,130.69547,R,ugm-3
09-01-2016,19:00,36.33354,R,ugm-3,52.68507,R,ugm-3,108.39572,R,ugm-3
09-01-2016,20:00,16.53359,R,ugm-3,36.70948,R,ugm-3,62.06063,R,ugm-3
09-01-2016,21:00,14.83289,R,ugm-3,30.69180,R,ugm-3,53.43525,R,ugm-3
09-01-2016,22:00,10.24002,R,ugm-3,23.11304,R,ugm-3,38.81419,R,ugm-3
09-01-2016,23:00,3.84418,R,ugm-3,11.14605,R,ugm-3,17.04038,R,ugm-3
09-01-2016,24:00,3.57196,R,ugm-3,8.46042,R,ugm-3,13.93734,R,ugm-3
10-01-2016,01:00,4.21837,R,ugm-3,11.71024,R,ugm-3,18.17831,R,ugm-3
10-01-2016,02:00,,,,,,,,,
10-01-2016,03:00,1.87126,R,ugm-3,5.97465,R,ugm-3,8.84388,R,ugm-3
10-01-2016,04:00,3.81019,R,ugm-3,9.37077,R,ugm-3,15.21298,R,ugm-3
10-01-2016,05:00,4.01412,R,ugm-3,8.21658,R,ugm-3,14.37148,R,ugm-3
10-01-2016,06:00,3.67392,R,ugm-3,8.68466,R,ugm-3,14.31793,R,ugm-3
10-01-2016,07:00,3.30004,R,ugm-3,8.09992,R,ugm-3,13.15991,R,ugm-3
10-01-2016,08:00,3.57227,R,ugm-3,11.47309,R,ugm-3,16.95049,R,ugm-3
10-01-2016,09:00,2.07520,R,ugm-3,10.61007,R,ugm-3,13.79199,R,ugm-3
10-01-2016,10:00,1.42909,R,ugm-3,15.33825,R,ugm-3,17.52950,R,ugm-3
10-01-2016,11:00,41.67448,R,ugm-3,47.43669,R,ugm-3,111.33667,R,ugm-3
10-01-2016,12:00,4.96706,R,ugm-3,16.86251,R,ugm-3,24.47857,R,ugm-3
10-01-2016,13:00,29.93738,R,ugm-3,37.42810,R,ugm-3,83.33145,R,ugm-3
10-01-2016,14:00,43.64770,R,ugm-3,50.72811,R,ugm-3,117.65365,R,ugm-3
10-01-2016,15:00,61.54209,R,ugm-3,51.55909,R,ugm-3,145.92232,R,ugm-3
10-01-2016,16:00,47.86639,R,ugm-3,60.73622,R,ugm-3,134.13032,R,ugm-3
10-01-2016,17:00,10.81846,R,ugm-3,20.41928,R,ugm-3,37.00735,R,ugm-3
10-01-2016,18:00,6.83832,R,ugm-3,12.46615,R,ugm-3,22.95143,R,ugm-3
10-01-2016,19:00,1.25884,R,ugm-3,3.64953,R,ugm-3,5.57972,R,ugm-3
10-01-2016,20:00,0.91895,R,ugm-3,3.74993,R,ugm-3,5.15897,R,ugm-3
10-01-2016,21:00,0.68040,R,ugm-3,1.53622,R,ugm-3,2.57948,R,ugm-3
10-01-2016,22:00,0.68040,R,ugm-3,1.85226,R,ugm-3,2.89553,R,ugm-3
10-01-2016,23:00,0.64641,R,ugm-3,2.11475,R,ugm-3,3.10590,R,ugm-3
10-01-2016,24:00,0.57844,R,ugm-3,2.48243,R,ugm-3,3.36935,R,ugm-3
11-01-2016,01:00,0.58956,R,ugm-3,3.16710,R,ugm-3,4.07108,R,ugm-3
11-01-2016,02:00,,,,,,,,,
11-01-2016,03:00,0.71470,R,ugm-3,3.53669,R,ugm-3,4.63255,R,ugm-3
11-01-2016,04:00,0.40818,R,ugm-3,2.05881,R,ugm-3,2.68467,R,ugm-3
11-01-2016,05:00,0.91895,R,ugm-3,2.59192,R,ugm-3,4.00095,R,ugm-3
11-01-2016,06:00,0.74869,R,ugm-3,2.16878,R,ugm-3,3.31675,R,ugm-3
11-01-2016,07:00,2.75591,R,ugm-3,10.51397,R,ugm-3,14.73964,R,ugm-3
11-01-2016,08:00,16.83980,R,ugm-3,41.66573,R,ugm-3,67.48639,R,ugm-3
11-01-2016,09:00,18.77904,R,ugm-3,49.27317,R,ugm-3,78.06729,R,ugm-3
11-01-2016,10:00,17.52020,R,ugm-3,47.15030,R,ugm-3,74.01423,R,ugm-3
11-01-2016,11:00,23.81408,R,ugm-3,31.86703,R,ugm-3,68.38144,R,ugm-3
11-01-2016,12:00,1.15687,R,ugm-3,4.59574,R,ugm-3,6.36958,R,ugm-3
11-01-2016,13:00,2.61933,R,ugm-3,6.98588,R,ugm-3,11.00213,R,ugm-3
11-01-2016,14:00,2.75591,R,ugm-3,9.98755,R,ugm-3,14.21322,R,ugm-3
11-01-2016,15:00,21.77287,R,ugm-3,34.94424,R,ugm-3,68.32884,R,ugm-3
11-01-2016,16:00,9.01517,R,ugm-3,35.08099,R,ugm-3,48.90406,R,ugm-3
11-01-2016,17:00,4.04811,R,ugm-3,34.48524,R,ugm-3,40.69226,R,ugm-3
11-01-2016,18:00,8.81155,R,ugm-3,43.23684,R,ugm-3,56.74770,R,ugm-3
11-01-2016,19:00,7.58670,R,ugm-3,42.90407,R,ugm-3,54.53685,R,ugm-3
11-01-2016,20:00,74.09586,R,ugm-3,70.63341,R,ugm-3,184.24547,R,ugm-3
11-01-2016,21:00,38.40873,R,ugm-3,55.70778,R,ugm-3,114.60035,R,ugm-3
11-01-2016,22:00,17.07803,R,ugm-3,32.93086,R,ugm-3,59.11681,R,ugm-3
11-01-2016,23:00,6.87231,R,ugm-3,19.09966,R,ugm-3,29.63706,R,ugm-3
11-01-2016,24:00,3.98013,R,ugm-3,14.32223,R,ugm-3,20.42502,R,ugm-3
12-01-2016,01:00,2.54241,R,ugm-3,12.04939,R,ugm-3,15.94770,R,ugm-3
12-01-2016,02:00,,,,,,,,,
12-01-2016,03:00,2.00909,R,ugm-3,10.72387,R,ugm-3,13.80443,R,ugm-3
12-01-2016,04:00,11.03268,R,ugm-3,23.17998,R,ugm-3,40.09652,R,ugm-3
12-01-2016,05:00,7.93408,R,ugm-3,20.44941,R,ugm-3,32.61482,R,ugm-3
12-01-2016,06:00,16.00411,R,ugm-3,37.84455,R,ugm-3,62.38384,R,ugm-3
12-01-2016,07:00,31.08895,R,ugm-3,37.68773,R,ugm-3,85.35679,R,ugm-3
12-01-2016,08:00,31.22491,R,ugm-3,42.90646,R,ugm-3,90.78398,R,ugm-3
12-01-2016,09:00,53.46021,R,ugm-3,53.91481,R,ugm-3,135.88599,R,ugm-3
12-01-2016,10:00,34.97055,R,ugm-3,40.79841,R,ugm-3,94.41917,R,ugm-3
12-01-2016,11:00,23.12058,R,ugm-3,31.93827,R,ugm-3,67.38933,R,ugm-3
12-01-2016,12:00,53.18799,R,ugm-3,56.12375,R,ugm-3,137.67753,R,ugm-3
12-01-2016,13:00,62.82463,R,ugm-3,62.37093,R,ugm-3,158.70068,R,ugm-3
12-01-2016,14:00,42.97260,R,ugm-3,53.76659,R,ugm-3,119.65700,R,ugm-3
12-01-2016,15:00,44.26668,R,ugm-3,53.57486,R,ugm-3,121.44949,R,ugm-3
12-01-2016,16:00,37.69497,R,ugm-3,49.00351,R,ugm-3,106.80165,R,ugm-3
12-01-2016,17:00,51.17953,R,ugm-3,55.40943,R,ugm-3,133.88361,R,ugm-3
12-01-2016,18:00,69.39634,R,ugm-3,59.93393,R,ugm-3,166.34017,R,ugm-3
12-01-2016,19:00,53.22229,R,ugm-3,56.43979,R,ugm-3,138.04616,R,ugm-3
12-01-2016,20:00,21.04382,R,ugm-3,28.01000,R,ugm-3,60.27674,R,ugm-3
12-01-2016,21:00,17.53641,R,ugm-3,24.37816,R,ugm-3,51.26695,R,ugm-3
12-01-2016,22:00,19.17100,R,ugm-3,26.03438,R,ugm-3,55.42951,R,ugm-3
12-01-2016,23:00,6.36747,R,ugm-3,13.26223,R,ugm-3,23.02554,R,ugm-3
12-01-2016,24:00,4.93744,R,ugm-3,11.81925,R,ugm-3,19.38988,R,ugm-3
13-01-2016,01:00,2.67837,R,ugm-3,6.36098,R,ugm-3,10.46775,R,ugm-3
13-01-2016,02:00,,,,,,,,,
13-01-2016,03:00,10.04513,R,ugm-3,21.90195,R,ugm-3,37.30427,R,ugm-3
13-01-2016,04:00,8.13832,R,ugm-3,18.23903,R,ugm-3,30.71762,R,ugm-3
13-01-2016,05:00,11.06667,R,ugm-3,21.75851,R,ugm-3,38.72717,R,ugm-3
13-01-2016,06:00,18.42169,R,ugm-3,42.77880,R,ugm-3,71.02499,R,ugm-3
13-01-2016,07:00,73.07401,R,ugm-3,70.36566,R,ugm-3,182.41090,R,ugm-3
13-01-2016,08:00,118.29424,R,ugm-3,82.06490,R,ugm-3,263.44688,R,ugm-3
13-01-2016,09:00,70.99694,R,ugm-3,66.96428,R,ugm-3,175.82473,R,ugm-3
13-01-2016,10:00,254.39744,R,ugm-3,107.94915,R,ugm-3,498.01978,R,ugm-3
13-01-2016,11:00,181.35711,R,ugm-3,87.69291,R,ugm-3,365.76993,R,ugm-3
13-01-2016,12:00,,,,,,,,,
13-01-2016,13:00,11.27092,R,ugm-3,32.35185,R,ugm-3,49.63368,R,ugm-3
13-01-2016,14:00,39.26126,R,ugm-3,64.83232,R,ugm-3,125.03208,R,ugm-3
13-01-2016,15:00,31.73599,R,ugm-3,64.04150,R,ugm-3,112.70267,R,ugm-3
13-01-2016,16:00,48.21688,R,ugm-3,66.11656,R,ugm-3,140.04807,R,ugm-3
13-01-2016,17:00,59.99856,R,ugm-3,68.49523,R,ugm-3,160.49174,R,ugm-3
13-01-2016,18:00,66.53628,R,ugm-3,67.48065,R,ugm-3,169.50153,R,ugm-3
13-01-2016,19:00,61.83708,R,ugm-3,68.62672,R,ugm-3,163.44225,R,ugm-3
13-01-2016,20:00,39.73773,R,ugm-3,57.14598,R,ugm-3,118.07632,R,ugm-3
13-01-2016,21:00,16.61715,R,ugm-3,40.32984,R,ugm-3,65.80913,R,ugm-3
13-01-2016,22:00,13.51824,R,ugm-3,30.43361,R,ugm-3,51.16129,R,ugm-3
13-01-2016,23:00,4.80117,R,ugm-3,11.60601,R,ugm-3,18.96770,R,ugm-3
13-01-2016,24:00,2.14504,R,ugm-3,2.29596,R,ugm-3,5.58498,R,ugm-3
14-01-2016,01:00,1.22693,R,ugm-3,1.49430,R,ugm-3,3.37556,R,ugm-3
14-01-2016,02:00,,,,,,,,,
14-01-2016,03:00,3.40794,R,ugm-3,7.06238,R,ugm-3,12.28781,R,ugm-3
14-01-2016,04:00,3.64679,R,ugm-3,7.22351,R,ugm-3,12.81518,R,ugm-3
14-01-2016,05:00,2.59033,R,ugm-3,7.68347,R,ugm-3,11.65525,R,ugm-3
14-01-2016,06:00,16.22301,R,ugm-3,25.70018,R,ugm-3,50.57511,R,ugm-3
14-01-2016,07:00,104.19040,R,ugm-3,83.88942,R,ugm-3,243.64581,R,ugm-3
14-01-2016,08:00,59.64433,R,ugm-3,70.18540,R,ugm-3,161.63876,R,ugm-3
14-01-2016,09:00,221.57006,R,ugm-3,115.28024,R,ugm-3,455.01626,R,ugm-3
14-01-2016,10:00,290.75748,R,ugm-3,117.46432,R,ugm-3,563.28623,R,ugm-3
14-01-2016,11:00,120.61796,R,ugm-3,87.12585,R,ugm-3,272.07082,R,ugm-3
14-01-2016,12:00,44.75032,R,ugm-3,47.24736,R,ugm-3,115.86355,R,ugm-3
14-01-2016,13:00,45.22710,R,ugm-3,44.93419,R,ugm-3,114.28144,R,ugm-3
14-01-2016,14:00,34.93469,R,ugm-3,35.87659,R,ugm-3,89.44237,R,ugm-3
14-01-2016,15:00,36.26400,R,ugm-3,37.47735,R,ugm-3,93.08138,R,ugm-3
14-01-2016,16:00,54.36170,R,ugm-3,53.44720,R,ugm-3,136.80065,R,ugm-3
14-01-2016,17:00,52.35074,R,ugm-3,57.32097,R,ugm-3,137.59099,R,ugm-3
14-01-2016,18:00,54.49766,R,ugm-3,64.47133,R,ugm-3,148.03324,R,ugm-3
14-01-2016,19:00,37.83186,R,ugm-3,54.74388,R,ugm-3,112.75192,R,ugm-3
14-01-2016,20:00,22.66500,R,ugm-3,33.91149,R,ugm-3,68.66401,R,ugm-3
14-01-2016,21:00,15.16654,R,ugm-3,24.20843,R,ugm-3,47.46347,R,ugm-3
14-01-2016,22:00,14.00780,R,ugm-3,23.29521,R,ugm-3,44.77354,R,ugm-3
14-01-2016,23:00,28.25446,R,ugm-3,49.86413,R,ugm-3,93.18704,R,ugm-3
14-01-2016,24:00,18.91593,R,ugm-3,47.88661,R,ugm-3,76.89063,R,ugm-3
15-01-2016,01:00,7.41395,R,ugm-3,23.89223,R,ugm-3,35.26013,R,ugm-3
15-01-2016,02:00,,,,,,,,,
15-01-2016,03:00,8.11930,R,ugm-3,13.20390,R,ugm-3,25.65332,R,ugm-3
15-01-2016,04:00,5.45787,R,ugm-3,17.97081,R,ugm-3,26.33943,R,ugm-3
15-01-2016,05:00,9.17670,R,ugm-3,23.51180,R,ugm-3,37.58254,R,ugm-3
15-01-2016,06:00,5.32192,R,ugm-3,15.27657,R,ugm-3,23.43673,R,ugm-3
15-01-2016,07:00,23.19729,R,ugm-3,36.48285,R,ugm-3,72.05153,R,ugm-3
15-01-2016,08:00,121.23974,R,ugm-3,95.02304,R,ugm-3,280.92139,R,ugm-3
15-01-2016,09:00,32.13513,R,ugm-3,42.09795,R,ugm-3,91.37112,R,ugm-3
15-01-2016,10:00,32.64683,R,ugm-3,39.14840,R,ugm-3,89.20617,R,ugm-3
15-01-2016,11:00,49.90790,R,ugm-3,47.67863,R,ugm-3,124.20301,R,ugm-3
15-01-2016,12:00,45.20059,R,ugm-3,48.56220,R,ugm-3,117.86881,R,ugm-3
15-01-2016,13:00,30.46343,R,ugm-3,33.20626,R,ugm-3,79.91620,R,ugm-3
15-01-2016,14:00,30.32716,R,ugm-3,32.41257,R,ugm-3,78.91358,R,ugm-3
15-01-2016,15:00,34.48878,R,ugm-3,37.11637,R,ugm-3,89.99843,R,ugm-3
15-01-2016,16:00,43.25574,R,ugm-3,44.36570,R,ugm-3,110.69024,R,ugm-3
15-01-2016,17:00,79.65538,R,ugm-3,76.17679,R,ugm-3,198.31334,R,ugm-3
15-01-2016,18:00,124.92427,R,ugm-3,88.26522,R,ugm-3,279.81309,R,ugm-3
15-01-2016,19:00,144.33475,R,ugm-3,91.28267,R,ugm-3,312.59287,R,ugm-3
15-01-2016,20:00,154.15973,R,ugm-3,87.14402,R,ugm-3,323.51898,R,ugm-3
15-01-2016,21:00,136.72778,R,ugm-3,82.46604,R,ugm-3,292.11238,R,ugm-3
15-01-2016,22:00,80.26937,R,ugm-3,69.11201,R,ugm-3,192.18999,R,ugm-3
15-01-2016,23:00,46.36089,R,ugm-3,59.45150,R,ugm-3,130.53721,R,ugm-3
15-01-2016,24:00,46.32597,R,ugm-3,55.44051,R,ugm-3,126.47267,R,ugm-3
16-01-2016,01:00,31.59494,R,ugm-3,53.27588,R,ugm-3,101.72078,R,ugm-3
16-01-2016,02:00,,,,,,,,,